MDT,Max TemperatureF,Mean TemperatureF,Min TemperatureF,Max Dew PointF,MeanDew PointF,Min DewpointF,Max Humidity, Mean Humidity, Min Humidity, Max Sea Level PressureIn, Mean Sea Level PressureIn, Min Sea Level PressureIn, Max VisibilityMiles, Mean VisibilityMiles, Min VisibilityMiles, Max Wind SpeedMPH, Mean Wind SpeedMPH, Max Gust SpeedMPH,PrecipitationIn, CloudCover, Events, WindDirDegrees
2012-10-1,80,60,39,39,36,31,82,51,17,30.27,30.17,30.07,10,10,9,5,2,,0.00,0,,328
2012-10-2,80,58,37,39,34,29,86,46,16,30.06,29.95,29.86,10,10,10,12,2,,0.00,0,,219
2012-10-3,68,54,37,36,24,9,73,40,11,30.15,30.00,29.84,10,10,9,24,6,32,0.00,0,,333
2012-10-4,64,45,26,23,18,13,78,44,14,30.21,30.12,30.01,10,10,10,9,1,,0.00,0,,316
2012-10-5,60,45,30,23,18,14,64,38,16,30.22,30.14,30.05,10,10,10,8,3,,0.00,0,,324
2012-10-6,57,42,26,20,14,0,71,42,10,30.29,30.21,30.11,10,10,10,8,1,,0.00,0,,8
2012-10-7,61,40,21,19,13,6,72,39,15,30.29,30.19,30.10,10,10,10,6,1,,0.00,0,,30
2012-10-8,68,44,21,23,17,10,75,42,11,30.13,30.03,29.92,10,10,10,6,1,,0.00,0,,53
2012-10-9,71,48,27,24,19,12,75,38,11,30.08,30.01,29.94,10,10,10,6,2,,0.00,0,,1
2012-10-10,73,50,28,32,25,19,75,42,16,30.09,29.98,29.88,10,10,8,7,1,,0.00,0,,135
2012-10-11,77,57,39,38,33,30,70,48,21,29.99,29.89,29.82,10,10,4,13,3,17,0.00,1,,309
2012-10-12,66,54,43,45,39,32,72,57,39,29.91,29.84,29.76,10,10,10,20,5,18,0.00,4,Rain,311
2012-10-13,55,50,43,45,43,39,86,75,66,30.28,30.14,29.95,10,10,10,10,6,,0.00,7,,59
2012-10-14,66,46,28,42,35,28,100,81,36,30.41,30.32,30.20,10,6,0,7,1,,0.00,2,Fog,63
2012-10-15,70,52,34,37,34,30,85,59,29,30.17,30.07,29.98,10,10,10,8,2,,0.00,0,,241
2012-10-16,72,57,42,49,35,18,83,59,25,30.00,29.87,29.64,10,10,10,24,5,36,0.05,4,Rain,318
2012-10-17,54,40,27,24,19,17,69,45,24,30.26,30.17,30.00,10,10,10,10,3,21,0.00,0,,285
2012-10-18,61,42,24,25,21,17,81,54,19,30.39,30.31,30.23,10,10,10,6,1,,0.00,0,,24
2012-10-19,66,46,27,35,24,20,81,52,17,30.23,30.08,29.86,10,10,10,6,1,,0.00,1,,329
2012-10-20,72,58,46,38,33,27,66,45,20,29.82,29.70,29.58,10,10,10,16,4,23,0.00,5,,302
2012-10-21,62,54,45,39,36,27,76,54,29,29.77,29.72,29.68,10,10,10,7,3,,0.00,5,Rain,154
2012-10-22,64,52,39,47,42,37,93,69,42,29.74,29.62,29.49,10,9,4,26,9,44,0.32,7,Rain-Thunderstorm,209
2012-10-23,43,37,32,37,34,31,100,92,76,29.99,29.90,29.70,10,7,1,20,9,28,0.62,8,Rain-Snow,321
2012-10-24,44,38,33,36,32,24,100,84,49,30.11,30.01,29.98,10,8,2,7,2,,0.12,6,Rain-Snow,268
2012-10-25,42,36,30,33,30,26,96,81,55,30.44,30.23,30.11,10,8,2,15,4,24,0.01,6,Snow,25
2012-10-26,44,34,26,29,24,21,93,72,43,30.53,30.40,30.21,10,10,10,14,4,17,0.00,5,,183
2012-10-27,52,43,34,36,30,26,82,59,37,30.21,30.16,30.11,10,10,10,7,2,,0.00,6,,100
2012-10-28,62,52,42,38,35,32,82,57,36,30.14,30.10,30.05,10,10,10,10,4,,0.00,6,,152
2012-10-29,66,51,36,39,36,33,93,65,28,30.17,30.13,30.09,10,10,10,10,3,,0.00,0,,115
2012-10-30,66,50,34,37,34,31,89,64,30,30.21,30.15,30.08,10,10,10,7,2,,0.00,0,,9
2012-10-31,68,48,30,39,34,28,92,65,27,30.19,30.07,29.95,10,10,10,6,1,,0.00,0,,3